Regional Weather Roundup
Issued by NWS State College, PA

Home | Current Version | Previous Version | Graphics & Text | Print | Product List | Glossary On
Versions: 1 2 3 4 5 6 7 8 9 10 11 12 13 14 15 16 17 18 19 20 21 22 23 24 25 26 27 28 29 30 31 32 33 34 35 36 37 38 39 40 41 42 43 44 45 46 47 48 49 50
700
ASUS41 KCTP 300703
RWRCTP

REGIONAL WEATHER ROUNDUP
NATIONAL WEATHER SERVICE STATE COLLEGE PA
300 AM EDT SAT APR 30 2016

Note: "fair" indicates few or no clouds below 12,000 feet with no
significant weather and/or obstructions to visibility.

* = STATION THAT DOES NOT REPORT PRECIPITATION /E.G. RAIN...SNOW...ETC/
    THUNDER OR FOG.

PAZ002>004-007>009-013>016-020>023-029>032-300800-
WESTERN PENNSYLVANIA

CITY           SKY/WX    TMP DP  RH WIND       PRES   REMARKS
ERIE           CLEAR     36  33  89 S3        30.16R
MEADVILLE      CLOUDY    34  34 100 N7        30.11F
FRANKLIN*      CLOUDY    41  37  87 NE6       30.13F
NEW CASTLE     CLOUDY    42  39  89 VRB3      30.14S
BEAVER COUNTY  NOT AVBL
BUTLER*        CLOUDY    45  39  81 SW3       30.15R
PITTSBURGH INT CLOUDY    46  40  79 N5        30.12S
PITTSBURGH     CLOUDY    47  43  86 CALM      30.11S
INDIANA*       CLOUDY    48  46  93 CALM      30.13S
LATROBE        CLOUDY    48  48 100 CALM      30.12R FOG
WASHINGTON CO* CLOUDY    46  43  87 CALM      30.12R
$$

PAZ004>006-010>012-017>019-024>028-033>037-041-042-045-046-049>053-300800-
CENTRAL PENNSYLVANIA

CITY           SKY/WX    TMP DP  RH WIND       PRES   REMARKS
BRADFORD       CLOUDY    43  41  93 CALM      30.10S
DUBOIS         CLOUDY    44  43  96 N5        30.08F FOG
CLEARFIELD     FOG       44  42  93 NE7       30.11S VSB 1/4
JOHNSTOWN      CLOUDY    46  41  82 CALM      30.08S
ALTOONA        FOG       46  44  93 N7        30.11R VSB 1/4
STATE COLLEGE  CLOUDY    44  43  99 N5        30.12R FOG
WILLIAMSPORT   CLOUDY    46  42  86 E8        30.14R
SELINSGROVE    CLOUDY    46  44  93 E5        30.14S FOG
FT INDIANTOWN  CLOUDY    43  43 100 E7        30.14S FOG
CAPITAL CITY   LGT RAIN  47  44  90 E8        30.14S FOG
HARRISBURG     LGT RAIN  46  44  93 NE6       30.13S FOG
YORK           CLOUDY    47  46  97 E7        30.12S FOG
$$

PAZ038>040-043-044-047-048-054-055-060>062-067>071-300800-
EASTERN PENNSYLVANIA

CITY           SKY/WX    TMP DP  RH WIND       PRES   REMARKS
SCRANTON       CLOUDY    42  37  82 CALM      30.14S
MOUNT POCONO   CLOUDY    37  35  92 CALM      30.11F
ALLENTOWN      CLOUDY    45  38  76 NE3       30.16R
QUAKERTOWN*    CLOUDY    45  37  76 NE3       30.15F
READING        CLOUDY    45  37  73 CALM      30.14S
LANCASTER      CLOUDY    44  42  93 NE6       30.14S
COATESVILLE    CLOUDY    43  43 100 NE3       30.14F
POTTSTOWN      CLOUDY    44  38  79 E3        30.16S
BLUE BELL      CLOUDY    43  37  81 CALM      30.14S
DOYLESTOWN     CLOUDY    44  38  79 N3        30.14S
WILLOW GROVE   NOT AVBL
NORTH PHILA    CLOUDY    47  41  80 N5        30.16F
PHILADELPHIA   CLOUDY    47  41  80 NE9       30.15F
$$




USA.gov is the U.S. government's official web portal to all federal, state and local government web resources and services.